Time,TemperatureF,DewpointF,PressureIn,WindDirection,WindDirectionDegrees,WindSpeedMPH,WindSpeedGustMPH,Humidity,HourlyPrecipIn,Conditions,Clouds,dailyrainin,SoftwareType,DateUTC
2013-08-11 00:06:00,78.6,73.0,29.98,SE,145,0.0,12.0,83,0.00,,,0.00,Wunderground v.1.13,2013-08-11 05:06:00,
2013-08-11 00:11:00,78.8,73.6,29.98,SE,145,0.0,12.0,84,0.00,,,0.00,Wunderground v.1.13,2013-08-11 05:11:00,
2013-08-11 00:16:00,78.8,73.6,29.98,SE,145,0.0,12.0,84,0.00,,,0.00,Wunderground v.1.13,2013-08-11 05:16:00,
2013-08-11 00:22:00,78.8,73.2,29.98,SE,145,0.0,12.0,83,0.00,,,0.00,Wunderground v.1.13,2013-08-11 05:22:00,
2013-08-11 00:27:00,78.8,73.6,29.98,SE,145,0.0,12.0,84,0.00,,,0.00,Wunderground v.1.13,2013-08-11 05:27:00,
2013-08-11 00:33:00,78.8,73.6,29.98,SE,145,0.0,12.0,84,0.00,,,0.00,Wunderground v.1.13,2013-08-11 05:33:00,
2013-08-11 00:39:00,78.8,73.6,29.98,SE,145,0.0,12.0,84,0.00,,,0.00,Wunderground v.1.13,2013-08-11 05:39:00,
2013-08-11 00:45:00,78.6,73.4,29.98,SE,145,0.0,12.0,84,0.00,,,0.00,Wunderground v.1.13,2013-08-11 05:45:00,
2013-08-11 00:50:00,78.6,73.4,29.98,SE,145,0.0,12.0,84,0.00,,,0.00,Wunderground v.1.13,2013-08-11 05:50:00,
2013-08-11 00:58:00,78.6,73.4,29.98,SE,145,0.0,12.0,84,0.00,,,0.00,Wunderground v.1.13,2013-08-11 05:58:00,
2013-08-11 01:03:00,78.6,73.4,29.98,SE,145,0.0,12.0,84,0.00,,,0.00,Wunderground v.1.13,2013-08-11 06:03:00,
2013-08-11 01:08:00,78.6,73.4,29.98,SE,145,0.0,12.0,84,0.00,,,0.00,Wunderground v.1.13,2013-08-11 06:08:00,
2013-08-11 01:15:00,78.6,73.4,29.98,SE,145,0.0,12.0,84,0.00,,,0.00,Wunderground v.1.13,2013-08-11 06:15:00,
2013-08-11 01:20:00,78.6,73.7,29.98,SE,145,0.0,12.0,85,0.15,,,0.02,Wunderground v.1.13,2013-08-11 06:20:00,
2013-08-11 01:26:00,78.8,73.9,29.98,SE,145,0.0,12.0,85,0.06,,,0.02,Wunderground v.1.13,2013-08-11 06:26:00,
2013-08-11 01:32:00,78.6,73.7,29.98,SE,145,0.0,12.0,85,0.04,,,0.02,Wunderground v.1.13,2013-08-11 06:32:00,
2013-08-11 01:38:00,78.6,73.7,29.98,SE,145,0.0,12.0,85,0.00,,,0.02,Wunderground v.1.13,2013-08-11 06:38:00,
2013-08-11 01:43:00,78.6,73.7,29.98,SE,145,0.0,12.0,85,0.00,,,0.02,Wunderground v.1.13,2013-08-11 06:43:00,
2013-08-11 01:49:00,78.5,74.0,29.98,SE,145,0.0,12.0,86,0.00,,,0.02,Wunderground v.1.13,2013-08-11 06:49:00,
2013-08-11 01:54:00,78.5,74.0,29.97,SE,145,0.0,12.0,86,0.00,,,0.02,Wunderground v.1.13,2013-08-11 06:54:00,
2013-08-11 01:59:00,78.3,73.8,29.97,SE,145,0.0,12.0,86,0.00,,,0.02,Wunderground v.1.13,2013-08-11 06:59:00,
2013-08-11 02:04:00,78.3,73.8,29.97,SE,145,0.0,12.0,86,0.00,,,0.03,Wunderground v.1.13,2013-08-11 07:04:00,
2013-08-11 02:09:00,78.3,73.8,29.97,SE,145,0.0,12.0,86,0.00,,,0.03,Wunderground v.1.13,2013-08-11 07:09:00,
2013-08-11 02:15:00,78.5,74.0,29.97,SE,145,0.0,12.0,86,0.00,,,0.03,Wunderground v.1.13,2013-08-11 07:15:00,
2013-08-11 02:21:00,78.5,74.0,29.98,SE,145,0.0,12.0,86,0.00,,,0.03,Wunderground v.1.13,2013-08-11 07:21:00,
2013-08-11 02:26:00,78.5,74.3,29.98,SE,145,0.0,12.0,87,0.00,,,0.03,Wunderground v.1.13,2013-08-11 07:26:00,
2013-08-11 02:33:00,78.3,74.1,29.98,SE,145,0.0,12.0,87,0.00,,,0.03,Wunderground v.1.13,2013-08-11 07:33:00,
2013-08-11 02:38:00,78.3,74.1,29.98,SE,145,0.0,12.0,87,0.00,,,0.03,Wunderground v.1.13,2013-08-11 07:38:00,
2013-08-11 02:43:00,78.3,74.1,29.98,SE,145,0.0,12.0,87,0.00,,,0.03,Wunderground v.1.13,2013-08-11 07:43:00,
2013-08-11 02:49:00,78.3,74.1,29.98,SE,145,0.0,12.0,87,0.00,,,0.03,Wunderground v.1.13,2013-08-11 07:49:00,
2013-08-11 02:54:00,78.3,74.1,29.98,SE,145,0.0,12.0,87,0.00,,,0.03,Wunderground v.1.13,2013-08-11 07:54:00,
2013-08-11 03:00:00,78.5,74.6,29.98,SE,145,0.0,12.0,88,0.00,,,0.03,Wunderground v.1.13,2013-08-11 08:00:00,
2013-08-11 03:07:00,78.3,74.5,29.98,SE,145,0.0,12.0,88,0.00,,,0.03,Wunderground v.1.13,2013-08-11 08:07:00,
2013-08-11 03:13:00,78.5,74.6,29.98,SE,145,0.0,12.0,88,0.00,,,0.03,Wunderground v.1.13,2013-08-11 08:13:00,
2013-08-11 03:19:00,78.5,74.6,29.98,SE,145,0.0,12.0,88,0.00,,,0.03,Wunderground v.1.13,2013-08-11 08:19:00,
2013-08-11 03:24:00,78.5,74.6,29.98,SE,145,0.0,12.0,88,0.00,,,0.03,Wunderground v.1.13,2013-08-11 08:24:00,
2013-08-11 03:29:00,78.5,74.6,29.98,SE,145,0.0,12.0,88,0.00,,,0.03,Wunderground v.1.13,2013-08-11 08:29:00,
2013-08-11 03:35:00,78.5,74.6,29.98,SE,145,0.0,12.0,88,0.00,,,0.03,Wunderground v.1.13,2013-08-11 08:35:00,
2013-08-11 03:41:00,78.5,74.6,29.97,SE,145,0.0,12.0,88,0.00,,,0.03,Wunderground v.1.13,2013-08-11 08:41:00,
2013-08-11 03:46:00,78.3,74.5,29.97,SE,145,0.0,12.0,88,0.00,,,0.03,Wunderground v.1.13,2013-08-11 08:46:00,
2013-08-11 03:52:00,78.3,74.5,29.98,SE,145,0.0,12.0,88,0.00,,,0.03,Wunderground v.1.13,2013-08-11 08:52:00,
2013-08-11 03:57:00,78.1,74.3,29.98,SE,145,0.0,12.0,88,0.00,,,0.03,Wunderground v.1.13,2013-08-11 08:57:00,
2013-08-11 04:03:00,78.1,74.3,29.98,SE,145,0.0,12.0,88,0.00,,,0.03,Wunderground v.1.13,2013-08-11 09:03:00,
2013-08-11 04:10:00,77.9,74.1,29.98,SE,145,0.0,12.0,88,0.00,,,0.03,Wunderground v.1.13,2013-08-11 09:10:00,
2013-08-11 04:15:00,77.9,74.1,29.98,SE,145,0.0,12.0,88,0.00,,,0.03,Wunderground v.1.13,2013-08-11 09:15:00,
2013-08-11 04:21:00,77.9,74.1,29.98,SSW,209,0.0,12.0,88,0.00,,,0.04,Wunderground v.1.13,2013-08-11 09:21:00,
2013-08-11 04:26:00,77.7,73.9,29.98,WSW,248,0.0,12.0,88,0.25,,,0.10,Wunderground v.1.13,2013-08-11 09:26:00,
2013-08-11 04:31:00,77.4,73.6,29.98,SE,145,0.0,12.0,88,0.10,,,0.10,Wunderground v.1.13,2013-08-11 09:31:00,
2013-08-11 04:36:00,77.0,73.2,29.98,SE,145,0.0,12.0,88,0.22,,,0.12,Wunderground v.1.13,2013-08-11 09:36:00,
2013-08-11 04:42:00,76.7,72.9,29.98,SE,145,0.0,12.0,88,0.12,,,0.13,Wunderground v.1.13,2013-08-11 09:42:00,
2013-08-11 04:47:00,76.5,72.7,29.98,SE,145,0.0,12.0,88,0.06,,,0.13,Wunderground v.1.13,2013-08-11 09:47:00,
2013-08-11 04:52:00,76.1,72.3,29.98,SE,145,0.0,12.0,88,0.04,,,0.13,Wunderground v.1.13,2013-08-11 09:52:00,
2013-08-11 04:58:00,76.0,72.2,29.98,SE,145,0.0,12.0,88,0.00,,,0.14,Wunderground v.1.13,2013-08-11 09:58:00,
2013-08-11 05:05:00,75.6,71.8,29.98,SE,145,0.0,12.0,88,0.00,,,0.14,Wunderground v.1.13,2013-08-11 10:05:00,
2013-08-11 05:11:00,75.4,71.6,29.98,SE,145,0.0,12.0,88,0.00,,,0.14,Wunderground v.1.13,2013-08-11 10:11:00,
2013-08-11 05:16:00,75.4,71.6,29.98,SE,145,0.0,12.0,88,0.00,,,0.14,Wunderground v.1.13,2013-08-11 10:16:00,
2013-08-11 05:21:00,75.3,71.8,29.98,SE,145,0.0,12.0,89,0.00,,,0.14,Wunderground v.1.13,2013-08-11 10:21:00,
2013-08-11 05:28:00,75.3,71.8,29.98,SE,145,0.0,12.0,89,0.00,,,0.14,Wunderground v.1.13,2013-08-11 10:28:00,
2013-08-11 05:33:00,75.3,71.8,29.98,SE,145,0.0,12.0,89,0.00,,,0.14,Wunderground v.1.13,2013-08-11 10:33:00,
2013-08-11 05:38:00,75.3,71.8,29.98,SE,145,0.0,12.0,89,0.00,,,0.14,Wunderground v.1.13,2013-08-11 10:38:00,
2013-08-11 05:44:00,75.3,71.8,29.98,SE,145,0.0,12.0,89,0.00,,,0.14,Wunderground v.1.13,2013-08-11 10:44:00,
2013-08-11 05:50:00,75.3,71.8,29.98,SE,145,0.0,12.0,89,0.00,,,0.14,Wunderground v.1.13,2013-08-11 10:50:00,
2013-08-11 05:57:00,75.3,71.8,29.98,SE,145,0.0,12.0,89,0.00,,,0.14,Wunderground v.1.13,2013-08-11 10:57:00,
2013-08-11 06:02:00,75.3,71.8,29.98,SE,145,0.0,12.0,89,0.00,,,0.14,Wunderground v.1.13,2013-08-11 11:02:00,
2013-08-11 06:07:00,75.3,71.8,29.99,SE,145,0.0,12.0,89,0.00,,,0.14,Wunderground v.1.13,2013-08-11 11:07:00,
2013-08-11 06:13:00,75.4,72.3,29.99,SE,145,0.0,12.0,90,0.00,,,0.14,Wunderground v.1.13,2013-08-11 11:13:00,
2013-08-11 06:19:00,75.6,72.5,29.99,SE,145,0.0,12.0,90,0.00,,,0.14,Wunderground v.1.13,2013-08-11 11:19:00,
2013-08-11 06:24:00,75.6,72.5,29.99,SE,145,0.0,12.0,90,0.00,,,0.14,Wunderground v.1.13,2013-08-11 11:24:00,
2013-08-11 06:29:00,75.8,73.0,29.99,SE,145,0.0,12.0,91,0.00,,,0.14,Wunderground v.1.13,2013-08-11 11:29:00,
2013-08-11 06:35:00,75.8,72.7,29.99,SE,145,0.0,12.0,90,0.00,,,0.14,Wunderground v.1.13,2013-08-11 11:35:00,
2013-08-11 06:40:00,76.0,72.9,30.00,SE,145,0.0,12.0,90,0.00,,,0.14,Wunderground v.1.13,2013-08-11 11:40:00,
2013-08-11 06:45:00,76.1,73.0,30.00,SE,145,0.0,12.0,90,0.00,,,0.14,Wunderground v.1.13,2013-08-11 11:45:00,
2013-08-11 06:50:00,76.5,73.3,30.00,SE,145,0.0,12.0,90,0.00,,,0.14,Wunderground v.1.13,2013-08-11 11:50:00,
2013-08-11 06:56:00,76.8,73.6,30.00,SE,145,0.0,12.0,90,0.00,,,0.14,Wunderground v.1.13,2013-08-11 11:56:00,
2013-08-11 07:02:00,77.0,73.8,30.00,SE,145,0.0,12.0,90,0.00,,,0.14,Wunderground v.1.13,2013-08-11 12:02:00,
2013-08-11 07:07:00,77.0,73.8,30.00,SE,145,0.0,12.0,90,0.00,,,0.14,Wunderground v.1.13,2013-08-11 12:07:00,
2013-08-11 07:13:00,76.8,73.6,30.00,SE,145,0.0,12.0,90,0.00,,,0.14,Wunderground v.1.13,2013-08-11 12:13:00,
2013-08-11 07:18:00,77.0,73.8,30.00,SE,145,0.0,12.0,90,0.00,,,0.14,Wunderground v.1.13,2013-08-11 12:18:00,
2013-08-11 07:23:00,77.0,73.8,30.01,SE,145,0.0,12.0,90,0.00,,,0.14,Wunderground v.1.13,2013-08-11 12:23:00,
2013-08-11 07:29:00,77.2,74.0,30.01,SE,145,0.0,12.0,90,0.00,,,0.14,Wunderground v.1.13,2013-08-11 12:29:00,
2013-08-11 07:34:00,77.4,74.6,30.01,SE,145,0.0,12.0,91,0.00,,,0.14,Wunderground v.1.13,2013-08-11 12:34:00,
2013-08-11 07:39:00,77.7,74.5,30.01,SE,145,0.0,12.0,90,0.00,,,0.14,Wunderground v.1.13,2013-08-11 12:39:00,
2013-08-11 07:44:00,77.9,75.1,30.01,SE,145,0.0,12.0,91,0.00,,,0.14,Wunderground v.1.13,2013-08-11 12:44:00,
2013-08-11 07:50:00,78.3,75.5,30.01,SE,145,0.0,12.0,91,0.00,,,0.14,Wunderground v.1.13,2013-08-11 12:50:00,
2013-08-11 07:55:00,78.6,75.4,30.02,SE,145,0.0,12.0,90,0.00,,,0.14,Wunderground v.1.13,2013-08-11 12:55:00,
2013-08-11 08:00:00,78.8,75.9,30.02,SE,145,0.0,12.0,91,0.00,,,0.14,Wunderground v.1.13,2013-08-11 13:00:00,
2013-08-11 08:06:00,79.2,76.0,30.02,SE,145,0.0,12.0,90,0.00,,,0.14,Wunderground v.1.13,2013-08-11 13:06:00,
2013-08-11 08:12:00,79.6,76.7,30.02,NE,56,0.0,12.0,91,0.00,,,0.14,Wunderground v.1.13,2013-08-11 13:12:00,
2013-08-11 08:17:00,79.8,76.6,30.02,NNE,18,1.0,12.0,90,0.00,,,0.14,Wunderground v.1.13,2013-08-11 13:17:00,
2013-08-11 08:23:00,79.9,76.7,30.02,NNE,18,0.0,12.0,90,0.00,,,0.14,Wunderground v.1.13,2013-08-11 13:23:00,
2013-08-11 08:28:00,80.1,76.9,30.02,NNE,18,0.0,12.0,90,0.00,,,0.14,Wunderground v.1.13,2013-08-11 13:28:00,
2013-08-11 08:33:00,80.3,77.1,30.02,NNE,32,0.0,12.0,90,0.00,,,0.14,Wunderground v.1.13,2013-08-11 13:33:00,
2013-08-11 08:39:00,80.5,77.3,30.02,NNE,32,0.0,12.0,90,0.00,,,0.14,Wunderground v.1.13,2013-08-11 13:39:00,
2013-08-11 08:46:00,80.9,78.0,30.02,NNE,32,0.0,12.0,91,0.00,,,0.14,Wunderground v.1.13,2013-08-11 13:46:00,
2013-08-11 08:51:00,81.2,78.3,30.02,NNE,32,0.0,12.0,91,0.00,,,0.14,Wunderground v.1.13,2013-08-11 13:51:00,
2013-08-11 08:57:00,81.4,78.2,30.02,NNE,25,0.0,12.0,90,0.00,,,0.14,Wunderground v.1.13,2013-08-11 13:57:00,
2013-08-11 09:02:00,81.6,78.4,30.02,ENE,76,0.0,12.0,90,0.00,,,0.14,Wunderground v.1.13,2013-08-11 14:02:00,
2013-08-11 09:07:00,81.6,78.0,30.03,NNW,333,0.0,12.0,89,0.00,,,0.14,Wunderground v.1.13,2013-08-11 14:07:00,
2013-08-11 09:12:00,81.6,78.0,30.03,NNW,330,0.0,12.0,89,0.00,,,0.14,Wunderground v.1.13,2013-08-11 14:12:00,
2013-08-11 09:18:00,82.0,78.4,30.03,SW,216,0.0,12.0,89,0.00,,,0.14,Wunderground v.1.13,2013-08-11 14:18:00,
2013-08-11 09:23:00,82.4,78.8,30.02,ESE,123,0.0,12.0,89,0.00,,,0.14,Wunderground v.1.13,2013-08-11 14:23:00,
2013-08-11 09:28:00,82.8,78.9,30.02,NE,55,0.0,12.0,88,0.00,,,0.14,Wunderground v.1.13,2013-08-11 14:28:00,
2013-08-11 09:34:00,83.0,79.1,30.02,ENE,58,0.0,12.0,88,0.00,,,0.14,Wunderground v.1.13,2013-08-11 14:34:00,
2013-08-11 09:39:00,83.2,78.9,30.02,NE,49,0.0,12.0,87,0.00,,,0.14,Wunderground v.1.13,2013-08-11 14:39:00,
2013-08-11 09:44:00,83.4,79.1,30.02,SW,217,0.0,12.0,87,0.00,,,0.14,Wunderground v.1.13,2013-08-11 14:44:00,
2013-08-11 09:50:00,83.4,78.8,30.02,SW,227,0.0,12.0,86,0.00,,,0.14,Wunderground v.1.13,2013-08-11 14:50:00,
2013-08-11 09:55:00,83.4,78.4,30.03,South,179,0.0,12.0,85,0.00,,,0.14,Wunderground v.1.13,2013-08-11 14:55:00,
2013-08-11 10:00:00,83.6,78.6,30.03,ENE,73,0.0,12.0,85,0.00,,,0.14,Wunderground v.1.13,2013-08-11 15:00:00,
2013-08-11 10:06:00,84.0,79.0,30.03,ENE,65,0.0,12.0,85,0.00,,,0.14,Wunderground v.1.13,2013-08-11 15:06:00,
2013-08-11 10:11:00,84.3,78.9,30.03,NE,37,0.0,12.0,84,0.00,,,0.14,Wunderground v.1.13,2013-08-11 15:11:00,
2013-08-11 10:18:00,84.5,78.4,30.03,North,0,0.0,12.0,82,0.00,,,0.14,Wunderground v.1.13,2013-08-11 15:18:00,
2013-08-11 10:23:00,84.7,78.2,30.03,NE,55,0.0,12.0,81,0.00,,,0.14,Wunderground v.1.13,2013-08-11 15:23:00,
2013-08-11 10:28:00,84.9,78.0,30.03,SE,143,0.0,12.0,80,0.00,,,0.14,Wunderground v.1.13,2013-08-11 15:28:00,
2013-08-11 10:38:00,85.3,78.0,30.03,North,357,0.0,12.0,79,0.00,,,0.14,Wunderground v.1.13,2013-08-11 15:38:00,
2013-08-11 10:44:00,85.7,78.4,30.03,NNE,21,0.0,12.0,79,0.00,,,0.14,Wunderground v.1.13,2013-08-11 15:44:00,
2013-08-11 10:49:00,85.7,78.4,30.03,NW,305,0.0,12.0,79,0.00,,,0.14,Wunderground v.1.13,2013-08-11 15:49:00,
2013-08-11 10:54:00,85.9,77.8,30.03,ESE,110,0.0,12.0,77,0.00,,,0.14,Wunderground v.1.13,2013-08-11 15:54:00,
2013-08-11 11:00:00,86.1,77.6,30.03,South,176,0.0,12.0,76,0.00,,,0.14,Wunderground v.1.13,2013-08-11 16:00:00,
2013-08-11 11:05:00,86.3,78.2,30.03,NE,56,0.0,12.0,77,0.00,,,0.14,Wunderground v.1.13,2013-08-11 16:05:00,
2013-08-11 11:10:00,86.7,78.6,30.03,NE,56,0.0,12.0,77,0.00,,,0.14,Wunderground v.1.13,2013-08-11 16:10:00,
2013-08-11 11:17:00,87.0,78.1,30.03,ENE,71,0.0,12.0,75,0.00,,,0.14,Wunderground v.1.13,2013-08-11 16:17:00,
2013-08-11 11:23:00,87.2,77.9,30.02,NE,49,0.0,12.0,74,0.00,,,0.14,Wunderground v.1.13,2013-08-11 16:23:00,
2013-08-11 11:29:00,87.4,78.1,30.02,NE,56,0.0,12.0,74,0.00,,,0.14,Wunderground v.1.13,2013-08-11 16:29:00,
2013-08-11 11:34:00,87.4,77.7,30.02,ENE,59,0.0,12.0,73,0.00,,,0.14,Wunderground v.1.13,2013-08-11 16:34:00,
2013-08-11 11:40:00,87.6,77.9,30.02,West,267,0.0,12.0,73,0.00,,,0.14,Wunderground v.1.13,2013-08-11 16:40:00,
2013-08-11 11:45:00,87.6,77.9,30.02,West,267,0.0,12.0,73,0.00,,,0.14,Wunderground v.1.13,2013-08-11 16:45:00,
2013-08-11 11:52:00,87.8,78.1,30.02,ENE,65,0.0,12.0,73,0.00,,,0.14,Wunderground v.1.13,2013-08-11 16:52:00,
2013-08-11 11:59:00,88.0,77.4,30.02,ESE,107,0.0,12.0,71,0.00,,,0.14,Wunderground v.1.13,2013-08-11 16:59:00,
2013-08-11 12:04:00,88.2,78.0,30.02,East,99,0.0,12.0,72,0.00,,,0.14,Wunderground v.1.13,2013-08-11 17:04:00,
2013-08-11 12:10:00,88.4,77.4,30.01,NE,44,0.0,12.0,70,0.00,,,0.14,Wunderground v.1.13,2013-08-11 17:10:00,
2013-08-11 12:15:00,88.6,77.1,30.01,South,175,0.0,12.0,69,0.00,,,0.14,Wunderground v.1.13,2013-08-11 17:15:00,
2013-08-11 12:20:00,88.8,76.9,30.01,ENE,61,0.0,12.0,68,0.00,,,0.14,Wunderground v.1.13,2013-08-11 17:20:00,
2013-08-11 12:26:00,88.8,76.9,30.01,SW,236,0.0,12.0,68,0.00,,,0.14,Wunderground v.1.13,2013-08-11 17:26:00,
2013-08-11 12:31:00,88.8,76.4,30.01,South,184,0.0,12.0,67,0.00,,,0.14,Wunderground v.1.13,2013-08-11 17:31:00,
2013-08-11 12:37:00,89.3,77.3,30.01,SE,136,1.0,12.0,68,0.00,,,0.14,Wunderground v.1.13,2013-08-11 17:37:00,
2013-08-11 12:42:00,89.5,78.0,30.01,East,89,0.0,12.0,69,0.00,,,0.14,Wunderground v.1.13,2013-08-11 17:42:00,
2013-08-11 12:47:00,89.5,77.5,30.01,East,97,1.0,12.0,68,0.00,,,0.14,Wunderground v.1.13,2013-08-11 17:47:00,
2013-08-11 12:53:00,89.7,77.7,30.01,NNE,30,1.0,12.0,68,0.00,,,0.14,Wunderground v.1.13,2013-08-11 17:53:00,
2013-08-11 12:58:00,89.7,77.7,30.01,SE,133,0.0,12.0,68,0.00,,,0.14,Wunderground v.1.13,2013-08-11 17:58:00,
2013-08-11 13:03:00,89.9,77.5,30.01,WSW,241,0.0,12.0,67,0.00,,,0.14,Wunderground v.1.13,2013-08-11 18:03:00,
2013-08-11 13:09:00,90.1,77.2,30.01,NE,54,0.0,12.0,66,0.00,,,0.14,Wunderground v.1.13,2013-08-11 18:09:00,
2013-08-11 13:14:00,90.3,77.4,30.01,SSE,162,0.0,12.0,66,0.00,,,0.14,Wunderground v.1.13,2013-08-11 18:14:00,
2013-08-11 13:19:00,90.5,77.6,30.01,SSW,208,0.0,12.0,66,0.00,,,0.14,Wunderground v.1.13,2013-08-11 18:19:00,
2013-08-11 13:25:00,90.7,77.8,30.01,SSE,154,0.0,12.0,66,0.00,,,0.14,Wunderground v.1.13,2013-08-11 18:25:00,
2013-08-11 13:31:00,90.7,77.8,30.01,NNE,25,0.0,12.0,66,0.00,,,0.14,Wunderground v.1.13,2013-08-11 18:31:00,
2013-08-11 13:37:00,90.7,77.3,30.01,ENE,73,0.0,12.0,65,0.00,,,0.14,Wunderground v.1.13,2013-08-11 18:37:00,
2013-08-11 13:42:00,90.7,77.3,30.01,North,354,0.0,12.0,65,0.00,,,0.14,Wunderground v.1.13,2013-08-11 18:42:00,
2013-08-11 13:48:00,90.5,77.6,30.01,NNW,344,0.0,12.0,66,0.00,,,0.14,Wunderground v.1.13,2013-08-11 18:48:00,
2013-08-11 13:53:00,90.5,77.6,30.00,SSE,164,0.0,12.0,66,0.00,,,0.14,Wunderground v.1.13,2013-08-11 18:53:00,
2013-08-11 13:59:00,90.5,77.6,30.00,NNE,13,0.0,12.0,66,0.00,,,0.14,Wunderground v.1.13,2013-08-11 18:59:00,
2013-08-11 14:04:00,90.5,77.6,30.00,NNW,340,0.0,12.0,66,0.00,,,0.14,Wunderground v.1.13,2013-08-11 19:04:00,
2013-08-11 14:10:00,90.3,76.9,29.99,West,278,1.0,1.0,65,0.00,,,0.14,Wunderground v.1.13,2013-08-11 19:10:00,
2013-08-11 14:15:00,90.1,77.2,29.99,NW,320,1.0,1.0,66,0.00,,,0.14,Wunderground v.1.13,2013-08-11 19:15:00,
2013-08-11 14:22:00,89.9,77.5,29.99,NNW,346,1.0,12.0,67,0.00,,,0.14,Wunderground v.1.13,2013-08-11 19:22:00,
2013-08-11 14:27:00,89.9,77.0,29.99,SW,217,1.0,12.0,66,0.00,,,0.14,Wunderground v.1.13,2013-08-11 19:27:00,
2013-08-11 14:33:00,90.1,77.2,29.99,ENE,61,0.0,12.0,66,0.00,,,0.14,Wunderground v.1.13,2013-08-11 19:33:00,
2013-08-11 14:39:00,90.3,77.4,29.99,ENE,72,0.0,12.0,66,0.00,,,0.14,Wunderground v.1.13,2013-08-11 19:39:00,
2013-08-11 14:44:00,90.3,77.4,29.99,ESE,116,0.0,12.0,66,0.00,,,0.14,Wunderground v.1.13,2013-08-11 19:44:00,
2013-08-11 14:49:00,90.5,77.6,29.99,SW,230,0.0,12.0,66,0.00,,,0.14,Wunderground v.1.13,2013-08-11 19:49:00,
2013-08-11 14:55:00,90.5,76.7,29.98,SSE,165,0.0,12.0,64,0.00,,,0.14,Wunderground v.1.13,2013-08-11 19:55:00,
2013-08-11 15:01:00,90.3,76.5,29.98,SE,144,1.0,12.0,64,0.00,,,0.14,Wunderground v.1.13,2013-08-11 20:01:00,
2013-08-11 15:07:00,90.1,76.3,29.98,NE,48,1.0,12.0,64,0.00,,,0.14,Wunderground v.1.13,2013-08-11 20:07:00,
2013-08-11 15:13:00,89.3,76.0,29.98,East,83,1.0,12.0,65,0.00,,,0.14,Wunderground v.1.13,2013-08-11 20:13:00,
2013-08-11 15:19:00,88.8,75.5,29.98,SW,216,0.0,12.0,65,0.00,,,0.14,Wunderground v.1.13,2013-08-11 20:19:00,
2013-08-11 15:24:00,88.4,75.6,29.98,WSW,240,0.0,12.0,66,0.00,,,0.14,Wunderground v.1.13,2013-08-11 20:24:00,
2013-08-11 15:30:00,88.0,75.7,29.98,NE,42,0.0,12.0,67,0.00,,,0.14,Wunderground v.1.13,2013-08-11 20:30:00,
2013-08-11 15:36:00,87.6,75.3,29.98,NNE,21,0.0,12.0,67,0.00,,,0.14,Wunderground v.1.13,2013-08-11 20:36:00,
2013-08-11 15:41:00,87.2,74.9,29.98,NNW,343,2.0,12.0,67,0.00,,,0.14,Wunderground v.1.13,2013-08-11 20:41:00,
2013-08-11 15:46:00,86.1,74.3,29.98,NNW,343,2.0,12.0,68,0.00,,,0.14,Wunderground v.1.13,2013-08-11 20:46:00,
2013-08-11 15:52:00,85.3,74.4,29.98,NNW,335,0.0,12.0,70,0.00,,,0.14,Wunderground v.1.13,2013-08-11 20:52:00,
2013-08-11 15:57:00,84.7,74.7,29.98,NW,306,1.0,12.0,72,0.00,,,0.14,Wunderground v.1.13,2013-08-11 20:57:00,
2013-08-11 16:02:00,84.3,73.9,29.98,NW,308,1.0,12.0,71,0.00,,,0.14,Wunderground v.1.13,2013-08-11 21:02:00,
2013-08-11 16:08:00,83.8,73.8,29.97,NW,306,0.0,12.0,72,0.00,,,0.14,Wunderground v.1.13,2013-08-11 21:08:00,
2013-08-11 16:13:00,83.6,73.6,29.97,NW,306,0.0,12.0,72,0.00,,,0.14,Wunderground v.1.13,2013-08-11 21:13:00,
2013-08-11 16:18:00,83.4,73.8,29.97,NW,306,0.0,12.0,73,0.00,,,0.14,Wunderground v.1.13,2013-08-11 21:18:00,
2013-08-11 16:24:00,83.6,74.4,29.98,NW,306,0.0,12.0,74,0.00,,,0.14,Wunderground v.1.13,2013-08-11 21:24:00,
2013-08-11 16:29:00,83.6,74.4,29.98,NW,311,0.0,12.0,74,0.00,,,0.14,Wunderground v.1.13,2013-08-11 21:29:00,
2013-08-11 16:34:00,83.8,74.6,29.98,NW,311,0.0,12.0,74,0.00,,,0.14,Wunderground v.1.13,2013-08-11 21:34:00,
2013-08-11 16:40:00,84.1,74.9,29.98,NW,311,0.0,12.0,74,0.00,,,0.14,Wunderground v.1.13,2013-08-11 21:40:00,
2013-08-11 16:45:00,84.5,75.7,29.98,South,186,0.0,12.0,75,0.00,,,0.14,Wunderground v.1.13,2013-08-11 21:45:00,
2013-08-11 16:50:00,85.1,76.7,29.98,SE,143,0.0,12.0,76,0.00,,,0.14,Wunderground v.1.13,2013-08-11 21:50:00,
2013-08-11 16:57:00,85.5,76.7,29.98,East,92,0.0,12.0,75,0.00,,,0.14,Wunderground v.1.13,2013-08-11 21:57:00,
2013-08-11 17:02:00,85.7,76.9,29.98,East,89,0.0,12.0,75,0.00,,,0.14,Wunderground v.1.13,2013-08-11 22:02:00,
2013-08-11 17:07:00,85.9,77.1,29.98,NNW,344,0.0,12.0,75,0.00,,,0.14,Wunderground v.1.13,2013-08-11 22:07:00,
2013-08-11 17:13:00,86.3,77.4,29.98,East,90,0.0,12.0,75,0.00,,,0.14,Wunderground v.1.13,2013-08-11 22:13:00,
2013-08-11 17:18:00,86.7,77.4,29.98,East,86,0.0,12.0,74,0.00,,,0.14,Wunderground v.1.13,2013-08-11 22:18:00,
2013-08-11 17:23:00,87.2,77.9,29.98,ENE,58,0.0,12.0,74,0.00,,,0.14,Wunderground v.1.13,2013-08-11 22:23:00,
2013-08-11 17:29:00,87.6,77.9,29.98,SE,133,0.0,12.0,73,0.00,,,0.14,Wunderground v.1.13,2013-08-11 22:29:00,
2013-08-11 17:34:00,87.8,77.6,29.98,East,89,0.0,12.0,72,0.00,,,0.14,Wunderground v.1.13,2013-08-11 22:34:00,
2013-08-11 17:39:00,88.2,78.0,29.98,East,95,0.0,12.0,72,0.00,,,0.14,Wunderground v.1.13,2013-08-11 22:39:00,
2013-08-11 17:46:00,88.6,78.0,29.98,ENE,66,0.0,12.0,71,0.00,,,0.14,Wunderground v.1.13,2013-08-11 22:46:00,
2013-08-11 17:51:00,88.8,77.7,29.98,SE,131,0.0,12.0,70,0.00,,,0.14,Wunderground v.1.13,2013-08-11 22:51:00,
2013-08-11 17:56:00,88.8,77.3,29.98,SSE,161,0.0,12.0,69,0.00,,,0.14,Wunderground v.1.13,2013-08-11 22:56:00,
2013-08-11 18:02:00,88.8,77.3,29.98,SW,229,1.0,12.0,69,0.00,,,0.14,Wunderground v.1.13,2013-08-11 23:02:00,
2013-08-11 18:07:00,88.6,77.1,29.98,SW,226,0.0,12.0,69,0.00,,,0.14,Wunderground v.1.13,2013-08-11 23:07:00,
2013-08-11 18:12:00,88.4,77.4,29.98,West,265,0.0,12.0,70,0.00,,,0.14,Wunderground v.1.13,2013-08-11 23:12:00,
2013-08-11 18:18:00,88.0,77.0,29.98,West,265,0.0,12.0,70,0.00,,,0.14,Wunderground v.1.13,2013-08-11 23:18:00,
2013-08-11 18:23:00,87.8,76.4,29.98,East,83,0.0,12.0,69,0.00,,,0.14,Wunderground v.1.13,2013-08-11 23:23:00,
2013-08-11 18:28:00,87.4,76.0,29.98,WSW,240,0.0,12.0,69,0.00,,,0.14,Wunderground v.1.13,2013-08-11 23:28:00,
2013-08-11 18:33:00,87.2,75.8,29.98,NW,319,0.0,12.0,69,0.00,,,0.14,Wunderground v.1.13,2013-08-11 23:33:00,
2013-08-11 18:39:00,87.0,75.6,29.98,SE,136,0.0,12.0,69,0.00,,,0.14,Wunderground v.1.13,2013-08-11 23:39:00,
2013-08-11 18:44:00,86.7,75.7,29.98,SW,226,0.0,12.0,70,0.00,,,0.14,Wunderground v.1.13,2013-08-11 23:44:00,
2013-08-11 18:50:00,86.5,76.0,29.98,SSE,155,0.0,12.0,71,0.00,,,0.14,Wunderground v.1.13,2013-08-11 23:50:00,
2013-08-11 18:56:00,86.1,75.6,29.98,SE,138,0.0,12.0,71,0.00,,,0.14,Wunderground v.1.13,2013-08-11 23:56:00,
2013-08-11 19:01:00,85.9,75.4,29.98,East,86,0.0,12.0,71,0.00,,,0.14,Wunderground v.1.13,2013-08-12 00:01:00,
2013-08-11 19:08:00,85.5,75.0,29.99,ENE,68,0.0,12.0,71,0.00,,,0.14,Wunderground v.1.13,2013-08-12 00:08:00,
2013-08-11 19:14:00,85.5,75.4,29.99,ENE,68,0.0,12.0,72,0.00,,,0.14,Wunderground v.1.13,2013-08-12 00:14:00,
2013-08-11 19:19:00,85.3,75.2,29.99,ENE,68,0.0,12.0,72,0.00,,,0.14,Wunderground v.1.13,2013-08-12 00:19:00,
2013-08-11 19:26:00,85.1,75.5,29.98,ENE,68,0.0,12.0,73,0.00,,,0.14,Wunderground v.1.13,2013-08-12 00:26:00,
2013-08-11 19:32:00,84.9,75.3,29.98,ENE,68,0.0,12.0,73,0.00,,,0.14,Wunderground v.1.13,2013-08-12 00:32:00,
2013-08-11 19:37:00,84.7,75.1,29.98,ENE,68,0.0,12.0,73,0.00,,,0.14,Wunderground v.1.13,2013-08-12 00:37:00,
2013-08-11 19:44:00,84.5,75.3,29.98,ENE,68,0.0,12.0,74,0.00,,,0.14,Wunderground v.1.13,2013-08-12 00:44:00,
2013-08-11 19:51:00,84.1,74.9,29.98,ENE,68,0.0,12.0,74,0.00,,,0.14,Wunderground v.1.13,2013-08-12 00:51:00,
2013-08-11 19:56:00,84.0,75.2,29.98,ENE,68,0.0,12.0,75,0.00,,,0.14,Wunderground v.1.13,2013-08-12 00:56:00,
2013-08-11 20:02:00,83.8,75.0,29.98,ENE,68,0.0,12.0,75,0.00,,,0.14,Wunderground v.1.13,2013-08-12 01:02:00,
2013-08-11 20:07:00,83.6,75.2,29.99,ENE,68,0.0,12.0,76,0.00,,,0.14,Wunderground v.1.13,2013-08-12 01:07:00,
2013-08-11 20:13:00,83.4,75.0,29.99,ENE,68,0.0,12.0,76,0.00,,,0.14,Wunderground v.1.13,2013-08-12 01:13:00,
2013-08-11 20:18:00,83.4,75.4,29.99,ENE,68,0.0,12.0,77,0.00,,,0.14,Wunderground v.1.13,2013-08-12 01:18:00,
2013-08-11 20:23:00,83.2,75.2,29.99,ENE,68,0.0,12.0,77,0.00,,,0.14,Wunderground v.1.13,2013-08-12 01:23:00,
2013-08-11 20:29:00,83.2,75.2,29.99,ENE,68,0.0,12.0,77,0.00,,,0.14,Wunderground v.1.13,2013-08-12 01:29:00,
2013-08-11 20:34:00,83.0,75.0,29.99,ENE,68,0.0,12.0,77,0.00,,,0.14,Wunderground v.1.13,2013-08-12 01:34:00,
2013-08-11 20:39:00,83.0,75.4,30.00,ENE,68,0.0,12.0,78,0.00,,,0.14,Wunderground v.1.13,2013-08-12 01:39:00,
2013-08-11 20:45:00,82.8,75.2,30.00,ENE,68,0.0,12.0,78,0.00,,,0.14,Wunderground v.1.13,2013-08-12 01:45:00,
2013-08-11 20:50:00,82.6,75.0,30.00,ENE,68,0.0,12.0,78,0.00,,,0.14,Wunderground v.1.13,2013-08-12 01:50:00,
2013-08-11 20:55:00,82.6,75.0,30.01,ENE,68,0.0,12.0,78,0.00,,,0.14,Wunderground v.1.13,2013-08-12 01:55:00,
2013-08-11 21:01:00,82.4,74.8,30.01,ENE,68,0.0,12.0,78,0.00,,,0.14,Wunderground v.1.13,2013-08-12 02:01:00,
2013-08-11 21:06:00,82.2,75.0,30.01,ENE,68,0.0,12.0,79,0.00,,,0.14,Wunderground v.1.13,2013-08-12 02:06:00,
2013-08-11 21:12:00,82.2,75.0,30.01,ENE,68,0.0,12.0,79,0.00,,,0.14,Wunderground v.1.13,2013-08-12 02:12:00,
2013-08-11 21:17:00,82.0,74.8,30.01,ENE,68,0.0,12.0,79,0.00,,,0.14,Wunderground v.1.13,2013-08-12 02:17:00,
2013-08-11 21:22:00,82.0,75.2,30.02,ENE,68,0.0,12.0,80,0.00,,,0.14,Wunderground v.1.13,2013-08-12 02:22:00,
2013-08-11 21:28:00,82.0,75.2,30.02,ENE,68,0.0,12.0,80,0.00,,,0.14,Wunderground v.1.13,2013-08-12 02:28:00,
2013-08-11 21:33:00,81.8,75.0,30.02,ENE,68,0.0,12.0,80,0.00,,,0.14,Wunderground v.1.13,2013-08-12 02:33:00,
2013-08-11 21:38:00,81.8,75.0,30.02,ENE,68,0.0,12.0,80,0.00,,,0.14,Wunderground v.1.13,2013-08-12 02:38:00,
2013-08-11 21:44:00,81.8,75.0,30.02,ENE,68,0.0,12.0,80,0.00,,,0.14,Wunderground v.1.13,2013-08-12 02:44:00,
2013-08-11 21:50:00,81.6,74.8,30.02,ENE,68,0.0,12.0,80,0.00,,,0.14,Wunderground v.1.13,2013-08-12 02:50:00,
2013-08-11 21:55:00,81.6,75.2,30.01,ENE,68,0.0,12.0,81,0.00,,,0.14,Wunderground v.1.13,2013-08-12 02:55:00,
2013-08-11 22:01:00,81.6,75.2,30.01,ENE,68,0.0,12.0,81,0.00,,,0.14,Wunderground v.1.13,2013-08-12 03:01:00,
2013-08-11 22:06:00,81.6,75.2,30.02,ENE,68,0.0,12.0,81,0.00,,,0.14,Wunderground v.1.13,2013-08-12 03:06:00,
2013-08-11 22:11:00,81.4,75.0,30.02,ENE,68,0.0,12.0,81,0.00,,,0.14,Wunderground v.1.13,2013-08-12 03:11:00,
2013-08-11 22:17:00,81.2,74.8,30.02,ENE,68,0.0,12.0,81,0.00,,,0.14,Wunderground v.1.13,2013-08-12 03:17:00,
2013-08-11 22:23:00,81.2,74.8,30.01,ENE,68,0.0,12.0,81,0.00,,,0.14,Wunderground v.1.13,2013-08-12 03:23:00,
2013-08-11 22:28:00,81.1,74.7,30.01,ENE,68,0.0,12.0,81,0.00,,,0.14,Wunderground v.1.13,2013-08-12 03:28:00,
2013-08-11 22:34:00,80.9,74.5,30.01,ENE,68,0.0,12.0,81,0.00,,,0.14,Wunderground v.1.13,2013-08-12 03:34:00,
2013-08-11 22:39:00,80.9,74.5,30.01,ENE,68,0.0,12.0,81,0.00,,,0.14,Wunderground v.1.13,2013-08-12 03:39:00,
2013-08-11 22:44:00,80.7,74.7,30.01,ENE,68,0.0,12.0,82,0.00,,,0.14,Wunderground v.1.13,2013-08-12 03:44:00,
2013-08-11 22:50:00,80.7,74.7,30.01,ENE,68,0.0,12.0,82,0.00,,,0.14,Wunderground v.1.13,2013-08-12 03:50:00,
2013-08-11 22:55:00,80.5,74.5,30.00,ENE,68,0.0,12.0,82,0.00,,,0.14,Wunderground v.1.13,2013-08-12 03:55:00,
2013-08-11 23:00:00,80.3,74.3,30.00,ENE,68,0.0,12.0,82,0.00,,,0.14,Wunderground v.1.13,2013-08-12 04:00:00,
2013-08-11 23:01:00,80.3,74.3,30.00,ENE,68,0.0,12.0,82,0.00,,,0.14,Wunderground v.1.13,2013-08-12 04:01:00,
2013-08-11 23:04:00,80.3,74.3,30.00,ENE,68,0.0,12.0,82,0.00,,,0.14,Wunderground v.1.13,2013-08-12 04:04:00,
2013-08-11 23:07:00,80.3,74.3,30.00,ENE,68,0.0,12.0,82,0.00,,,0.14,Wunderground v.1.13,2013-08-12 04:07:00,
2013-08-11 23:08:00,80.1,74.1,30.00,ENE,68,0.0,12.0,82,0.00,,,0.14,Wunderground v.1.13,2013-08-12 04:08:00,
2013-08-11 23:09:00,80.1,74.1,30.00,ENE,68,0.0,12.0,82,0.00,,,0.14,Wunderground v.1.13,2013-08-12 04:09:00,
2013-08-11 23:14:00,80.1,74.1,30.00,ENE,68,0.0,12.0,82,0.00,,,0.14,Wunderground v.1.13,2013-08-12 04:14:00,
2013-08-11 23:20:00,79.9,73.9,30.00,ENE,68,0.0,12.0,82,0.00,,,0.14,Wunderground v.1.13,2013-08-12 04:20:00,
2013-08-11 23:26:00,79.8,74.2,30.01,ENE,68,0.0,12.0,83,0.00,,,0.14,Wunderground v.1.13,2013-08-12 04:26:00,
2013-08-11 23:31:00,79.6,74.0,30.01,ENE,68,0.0,12.0,83,0.00,,,0.14,Wunderground v.1.13,2013-08-12 04:31:00,
2013-08-11 23:37:00,79.6,74.0,30.00,ENE,68,0.0,12.0,83,0.00,,,0.14,Wunderground v.1.13,2013-08-12 04:37:00,
2013-08-11 23:42:00,79.4,73.8,30.00,ENE,68,0.0,12.0,83,0.00,,,0.14,Wunderground v.1.13,2013-08-12 04:42:00,
2013-08-11 23:47:00,79.2,73.6,30.00,ENE,68,0.0,12.0,83,0.00,,,0.14,Wunderground v.1.13,2013-08-12 04:47:00,
2013-08-11 23:52:00,79.2,73.9,30.00,ENE,68,0.0,12.0,84,0.00,,,0.14,Wunderground v.1.13,2013-08-12 04:52:00,
2013-08-11 23:58:00,79.2,73.9,30.00,ENE,68,0.0,12.0,84,0.00,,,0.14,Wunderground v.1.13,2013-08-12 04:58:00,